Weather observations for the past three days for
Baraboo Wisconsin Dells Airport
Imperial (Metric)
Date Time (cdt) Wind (mph) Vis. (mi.) Weather Sky Cond. Temperature (ºF) Relative Humidity Wind Chill (°F) Heat Index (°F) Pressure Precipitation (in)
Air Dwpt 6 hour altimeter (in) sea level (mb) 1 hr 3 hr 6 hr
Max. Min.
03 09:35 SW 6 7.00 Heavy Rain OVC090 67.3 65.5 94% 29.99 0.0 0.06
03 09:15 SW 13 G 18 10.00 Thunderstorm Rain in Vicinity SCT080 OVC090 67.8 65.8 93% 29.98 0.0 0.02
03 08:55 SW 13 G 21 10.00 Rain OVC090 68.7 66.2 92% 29.98 0.0 0.03
03 08:35 SW 6 10.00 Light Rain SCT070 OVC100 69.1 65.7 89% 29.97 0.0
03 08:15 W 8 10.00 Thunderstorm Light Rain in Vicinity SCT050 SCT055 BKN090 70 65.3 85% 29.95 0.0
03 07:55 SW 6 G 16 10.00 Thunderstorm Light Drizzle in Vicinity SCT080 70.7 66.2 86% 29.93 0.0
03 07:35 W 13 G 21 10.00 Thunderstorm in Vicinity SCT065 BKN080 72.1 67.1 84% 29.94 0.0
03 06:55 Calm 10.00 Overcast OVC080 68.5 67.5 68.5 65.3 96% 29.91 0.0 0.01 0.01
03 06:35 Calm 10.00 Mostly Cloudy BKN080 BKN100 67.3 67.1 99% 29.91 0.0 0.01
03 06:15 Calm 10.00 Mostly Cloudy SCT080 BKN095 67.5 66.6 97% 29.9 0.0
03 05:55 Calm 10.00 Partly Cloudy SCT070 SCT095 67.5 65.8 95% 29.9 0.0
03 05:35 Calm 10.00 Mostly Cloudy SCT070 BKN095 67.5 66.2 96% 29.89 0.0
03 05:15 Calm 10.00 Mostly Cloudy SCT070 BKN085 67.3 65.5 94% 29.89 0.0
03 04:55 Calm 10.00 Mostly Cloudy SCT070 BKN085 66.2 65.3 97% 29.89 0.0
03 04:35 Calm 10.00 Mostly Cloudy SCT070 BKN085 66.2 65.3 97% 29.9 0.0
03 04:15 Calm 10.00 Mostly Cloudy BKN070 65.5 64.9 98% 29.9 0.0
03 03:55 Calm 10.00 Fair CLR 65.5 64.8 98% 29.9 0.0
03 03:35 Calm 10.00 Partly Cloudy SCT070 SCT085 SCT120 66.2 65.5 98% 29.9 0.0
03 03:15 Calm 10.00 Mostly Cloudy SCT070 BKN085 BKN120 65.8 65.3 98% 29.9 0.0
03 02:55 Calm 10.00 Mostly Cloudy BKN070 BKN085 BKN120 66.2 65.3 97% 29.9 0.0
03 02:35 Calm 10.00 Partly Cloudy SCT070 SCT090 67.1 65.7 95% 29.91 0.0
03 02:15 Calm 10.00 Partly Cloudy SCT070 SCT090 66.2 64.9 96% 29.91 0.0
03 01:55 Calm 10.00 Fair CLR 66.4 65.3 96% 29.92 0.0
03 01:35 Calm 10.00 Fair CLR 66.2 65.3 97% 29.92 0.0
03 01:15 Calm 10.00 Fair CLR 66.4 65.5 97% 29.92 0.0
03 00:55 Calm 10.00 Partly Cloudy SCT120 66.6 65.7 77.7 65.1 97% 29.92 0.0
03 00:35 Calm 10.00 Partly Cloudy SCT120 65.8 65.1 98% 29.92 0.0
03 00:15 Calm 10.00 Fair CLR 66.2 65.5 98% 29.92 0.0
02 23:55 Calm 10.00 Fair CLR 66.4 65.5 97% 29.92 0.0
02 23:35 Calm 10.00 Fair CLR 66.7 65.5 96% 29.92 0.0
02 23:15 Calm 10.00 Fair CLR 67.1 65.5 95% 29.92 0.0
02 22:55 Calm 10.00 Partly Cloudy SCT110 67.3 65.1 93% 29.92 0.0
02 22:35 Calm 10.00 Fair CLR 67.6 65.8 94% 29.93 0.0
02 22:15 Calm 10.00 Fair CLR 66.7 65.1 95% 29.92 0.0
02 21:55 Calm 10.00 Fair CLR 67.3 64.9 92% 29.92 0.0
02 21:30 Calm 10.00 Fair CLR 68.4 65.7 91% 29.92 0.0
02 21:15 Calm 10.00 Fair CLR 69.8 66.2 88% 29.91 0.0
02 20:55 Calm 10.00 Fair CLR 70.2 66.4 88% 29.91 0.0
02 20:35 Calm 10.00 Fair CLR 71.1 66.4 85% 29.91 0.0
02 20:15 SW 5 10.00 Fair CLR 70.2 66.2 87% 29.91 0.0
02 19:55 SW 3 10.00 Fair CLR 71.6 66.6 84% 29.9 0.0
02 19:35 Calm 10.00 Fair CLR 73.9 66.7 78% 29.9 0.0
02 19:15 Calm 10.00 Fair CLR 76.5 66.6 72% 78 29.9 0.0
02 18:55 SW 3 10.00 Fair CLR 78.1 66.9 82.9 78.1 69% 80 29.9 0.0
02 18:35 SW 3 10.00 Fair CLR 79.7 66.6 64% 82 29.9 0.0
02 18:15 SW 5 10.00 Fair CLR 80.8 66.6 62% 83 29.9 0.0
02 17:55 SW 7 10.00 Fair CLR 81.5 67.1 62% 84 29.9 0.0
02 17:35 SW 8 10.00 Fair CLR 81.9 65.8 58% 84 29.9 0.0
02 17:15 SW 6 10.00 Fair CLR 82.8 67.5 60% 86 29.9 0.0
02 16:55 SW 6 10.00 Fair CLR 82.9 67.1 59% 86 29.9 0.0
02 16:35 SW 7 10.00 Fair CLR 82.9 67.6 60% 86 29.9 0.0
02 16:15 SW 8 10.00 Fair CLR 82.6 66.9 59% 85 29.9 0.0
02 15:55 SW 8 10.00 Fair CLR 81.5 68.4 64% 84 29.92 0.0
02 15:35 W 8 10.00 Fair CLR 80.8 68.2 66% 84 29.92 0.0
02 15:15 W 9 10.00 Fair CLR 81.5 69.4 67% 85 29.92 0.0
02 14:55 SW 5 10.00 Fair CLR 80.8 69.1 68% 84 29.92 0.0
02 14:35 SW 8 10.00 Fair CLR 81.5 69.6 67% 85 29.93 0.0
02 14:15 W 8 10.00 Fair CLR 80.6 68.7 67% 84 29.93 0.0
02 13:55 W 8 10.00 Fair CLR 81 68.9 67% 84 29.92 0.0
02 13:35 SW 5 10.00 Fair CLR 80.6 69.4 69% 84 29.92 0.0
02 13:15 SW 9 10.00 Fair CLR 79.9 68.4 68% 83 29.93 0.0
02 12:55 SW 9 10.00 Fair CLR 79.7 68.7 79.7 63.9 69% 82 29.93 0.0
02 12:35 S 6 10.00 Fair CLR 78.1 68.4 72% 80 29.93 0.0
02 12:15 S 9 10.00 Fair CLR 77.7 68.4 73% 80 29.95 0.0
02 11:55 S 7 10.00 Partly Cloudy SCT120 75.9 67.3 75% 77 29.95 0.0
02 11:35 S 7 10.00 Partly Cloudy SCT110 74.7 66.4 76% 29.95 0.0
02 11:15 Calm 10.00 Partly Cloudy SCT120 73.6 66 77% 29.95 0.0
02 10:55 S 5 10.00 Partly Cloudy SCT120 73.4 65.5 76% 29.95 0.0
02 10:35 Calm 10.00 Partly Cloudy SCT120 71.1 64.6 80% 29.95 0.0
02 10:15 Calm 10.00 Partly Cloudy SCT120 71.4 64.4 79% 29.97 0.0
02 09:55 Calm 10.00 Partly Cloudy SCT110 69.1 63.5 83% 29.96 0.0
02 09:35 E 3 10.00 Partly Cloudy SCT110 68.2 63.3 85% 29.96 0.0
02 09:15 Calm 10.00 Partly Cloudy SCT110 66.9 63 87% 29.96 0.0
02 08:55 Calm 10.00 Partly Cloudy SCT110 66 63 90% 29.95 0.0
02 08:35 E 3 10.00 Mostly Cloudy BKN110 64.8 62.8 93% 29.96 0.0
02 08:15 E 3 10.00 Partly Cloudy SCT110 64.6 62.6 93% 29.96 0.0
02 07:55 E 5 10.00 Fair CLR 64.4 62.6 94% 29.97 0.0
02 07:35 Calm 10.00 Fair CLR 64.4 62.1 92% 29.99 0.0
02 07:15 N 5 10.00 Partly Cloudy SCT095 64.2 61.9 92% 29.99 0.0
02 06:55 Calm 10.00 Mostly Cloudy BKN095 64 61.9 71.2 63.9 93% 29.97 0.0
02 06:35 Calm 10.00 Mostly Cloudy BKN095 BKN110 64 61.9 93% 29.96 0.0
02 06:15 E 3 10.00 Mostly Cloudy SCT095 BKN110 64 62.1 93% 29.96 0.0
02 05:55 E 5 10.00 Overcast OVC095 64.4 62.1 92% 29.95 0.0
02 05:35 NE 6 10.00 Overcast BKN085 OVC110 65.3 62.1 89% 29.96 0.0
02 05:15 NE 7 10.00 Partly Cloudy SCT085 66.4 62.1 86% 29.97 0.0
02 04:55 N 7 10.00 Partly Cloudy SCT038 SCT070 SCT085 68.4 62.6 82% 29.98 0.0
02 04:35 NW 8 10.00 Light Rain SCT026 BKN038 OVC080 69.6 64.4 84% 29.99 0.0
02 04:15 NW 13 G 23 10.00 Mostly Cloudy SCT026 SCT050 BKN080 69.1 65.3 88% 30 0.0
02 03:55 Calm 10.00 Mostly Cloudy BKN080 68.2 65.1 90% 29.93 0.0
02 03:35 S 5 10.00 Overcast SCT080 OVC090 68.5 64.8 88% 29.94 0.0
02 03:15 E 5 10.00 Mostly Cloudy BKN080 BKN120 68.9 65.5 89% 29.93 0.0
02 02:55 E 7 10.00 Partly Cloudy SCT080 68.2 66.2 93% 29.93 0.0
02 02:35 SE 5 10.00 Partly Cloudy SCT080 68.5 66.6 93% 29.94 0.0
02 02:15 SE 3 10.00 Partly Cloudy SCT080 69.3 67.1 93% 29.94 0.0
02 01:55 Calm 10.00 Mostly Cloudy SCT070 BKN085 BKN110 70.3 66.7 88% 29.95 0.0
02 01:15 Calm 10.00 Overcast OVC100 70 69.1 97% 29.94 0.0
02 00:55 SE 3 10.00 Mostly Cloudy BKN110 69.8 68.9 78.4 69.8 97% 29.94 0.0 0.02
02 00:35 Calm 10.00 Partly Cloudy SCT120 71.4 69.1 92% 29.94 0.0
02 00:15 NW 3 10.00 Thunderstorm in Vicinity SCT110 70.7 70.3 99% 29.95 0.0
01 23:55 Calm 10.00 Overcast OVC110 71.1 70.3 98% 29.95 0.0
01 23:35 Calm 10.00 Mostly Cloudy BKN110 70 69.8 99% 29.95 0.0
01 22:55 S 3 10.00 Thunderstorm in Vicinity SCT120 70.2 69.8 99% 29.94 0.0
01 22:30 Calm 10.00 Partly Cloudy SCT047 SCT120 72.1 70.9 96% 29.95 0.0
01 22:15 Calm 7.00 Partly Cloudy SCT045 SCT120 70.9 70.7 99% 29.95 0.0
01 21:55 Calm 10.00 Fair CLR 71.6 70.9 98% 29.95 0.0 0.02
01 21:35 Calm 10.00 Fair CLR 71.4 70.5 97% 29.94 0.0
01 21:15 NW 3 10.00 Fair CLR 73 71.2 94% 29.94 0.0
01 20:55 NW 5 10.00 Fair CLR 74.3 71.8 92% 29.93 0.0
01 20:40 Calm 10.00 Fair CLR 72.9 71.6 96% 29.92 0.0
01 20:15 Calm 10.00 Mostly Cloudy BKN110 74.3 71.8 92% 29.92 0.0
01 19:55 S 8 10.00 Mostly Cloudy BKN110 74.5 71.6 91% 29.92 0.0 0.02
01 19:35 SW 3 10.00 Overcast SCT060 BKN100 OVC120 75.4 72.5 91% 75 29.95 0.0 0.02
01 19:10 W 5 10.00 Overcast OVC110 78.3 71.6 80% 81 29.95 0.0
01 18:55 S 6 10.00 Overcast OVC110 78.4 71.8 85.6 78.4 80% 81 29.92 0.0
01 18:35 SW 3 10.00 Mostly Cloudy BKN110 79.9 72.9 79% 84 29.93 0.0
01 18:15 SW 6 10.00 Fair CLR 80.2 72.5 77% 84 29.92 0.0
01 17:55 SW 6 10.00 Fair CLR 81 72.5 76% 86 29.92 0.0
01 17:35 SW 8 10.00 Fair CLR 82.4 72.5 72% 88 29.93 0.0
01 17:15 SW 8 10.00 Fair CLR 82.6 71.8 70% 88 29.93 0.0
01 16:55 SW 10 10.00 Fair CLR 82.6 70.3 67% 87 29.92 0.0
01 16:35 SW 7 10.00 Fair CLR 80.8 70.3 71% 84 29.92 0.0
01 16:15 SW 12 10.00 Fair CLR 82.8 71.6 69% 88 29.94 0.0
01 15:55 SW 8 10.00 Partly Cloudy SCT037 SCT047 82.9 72.5 71% 88 29.94 0.0
01 15:35 SW 8 10.00 Partly Cloudy SCT037 SCT047 85.1 72.5 66% 91 29.94 0.0
01 15:15 S 7 10.00 Fair CLR 85.1 72.3 66% 91 29.94 0.0
01 14:55 W 5 10.00 Thunderstorm in Vicinity CLR 85.3 70.5 61% 90 29.94 0.0
01 14:35 SW 7 10.00 Fair CLR 85.3 71.1 63% 91 29.95 0.0
01 14:15 SW 6 10.00 Partly Cloudy SCT033 SCT055 84.4 72.3 67% 90 29.95 0.0
01 13:55 S 6 10.00 Partly Cloudy SCT033 84.6 71.6 65% 90 29.95 0.0
01 13:35 Calm 10.00 Partly Cloudy SCT031 SCT110 84.4 72.3 67% 90 29.95 0.0
01 13:15 S 5 10.00 Partly Cloudy SCT029 SCT110 83.3 71.6 68% 88 29.95 0.0
01 12:55 Calm 10.00 Partly Cloudy SCT120 83.5 71.6 83.5 65.5 68% 89 29.95 0.0
01 12:35 Calm 10.00 Fair CLR 83.3 71.2 67% 88 29.95 0.0
01 12:15 Calm 10.00 Fair CLR 81.5 71.4 72% 86 29.95 0.0
01 11:55 Calm 10.00 Thunderstorm in Vicinity SCT016 SCT110 80.6 72.3 76% 85 29.96 0.0
01 11:35 SW 3 10.00 Partly Cloudy SCT110 79.7 73.6 82% 84 29.97 0.0
01 11:15 NW 3 10.00 Partly Cloudy SCT012 77.7 72.9 85% 80 29.97 0.0
01 10:55 Calm 10.00 Overcast OVC012 78.1 73.8 87% 81 29.97 0.0
01 10:35 Calm 10.00 Mostly Cloudy BKN012 BKN018 78.1 73.4 86% 81 29.97 0.0
01 09:55 Calm 10.00 Fair CLR 77 73.4 89% 78 29.96 0.0
01 09:35 Calm 10.00 Fair CLR 75 72.9 93% 74 29.96 0.0
01 09:15 Calm 10.00 Partly Cloudy SCT003 73.6 72.7 97% 29.97 0.0
01 08:55 SW 3 7.00 Mostly Cloudy BKN001 72.1 72.1 100% 29.98 0.0
01 08:35 SW 3 4.00 Fog/Mist BKN001 71.2 71.2 100% 29.98 0.0
01 08:15 SW 3 0.75 Fog/Mist OVC001 70.7 70.7 100% 29.98 0.0
01 07:55 Calm 0.25 Fog OVC001 69.8 69.8 100% 29.97 0.0
01 07:35 Calm 0.15 Fog OVC001 69.1 69.1 100% 29.96 0.0
01 07:15 Calm 0.15 Fog OVC001 67.5 67.5 100% 29.96 0.0
01 06:55 S 3 0.15 Fog OVC001 65.7 65.7 68.9 65.3 100% 29.95 0.0
01 06:35 Calm 0.15 Fog OVC001 65.7 65.7 100% 29.95 0.0
01 06:15 Calm 0.50 Fog OVC003 66.2 66.2 100% 29.94 0.0
01 05:55 Calm 4.00 Fog/Mist BKN003 65.8 65.8 100% 29.94 0.0
01 05:35 Calm 0.75 Fog/Mist OVC003 66.2 66.2 100% 29.94 0.0
01 05:15 Calm 0.25 Fog OVC003 66.6 66.6 100% 29.94 0.0
01 04:55 Calm 0.50 Fog VV005 66.9 66.9 100% 29.94 0.0
01 04:35 Calm 1.00 Fog/Mist VV007 66.7 66.7 100% 29.93 0.0
01 04:15 Calm 3.00 Fog/Mist CLR 67.3 67.3 100% 29.93 0.0
01 03:55 Calm 3.00 Fog/Mist CLR 65.8 65.8 100% 29.94 0.0
01 03:35 Calm 3.00 Fog/Mist CLR 65.7 65.7 100% 29.93 0.0
01 03:15 S 3 2.00 Fog/Mist CLR 66.6 66.6 100% 29.94 0.0
01 02:55 Calm 5.00 Fog/Mist CLR 66.2 66.2 100% 29.94 0.0
01 02:35 Calm 0.50 Fog VV005 66.7 66.6 99% 29.93 0.0
01 02:15 Calm 3.00 Fog/Mist CLR 68 67.8 99% 29.93 0.0
01 01:55 Calm 5.00 Fog/Mist CLR 67.3 66.6 98% 29.93 0.0
01 01:35 Calm 4.00 Fog/Mist CLR 68.7 68.7 100% 29.93 0.0
01 01:15 Calm 4.00 Fog/Mist CLR 68 68 100% 29.93 0.0
01 00:55 Calm 5.00 Fog/Mist CLR 67.5 67.5 79 66.7 100% 29.93 0.0
01 00:35 Calm 7.00 Fair CLR 67.6 67.3 99% 29.93 0.0
01 00:15 Calm 7.00 Fair CLR 68.4 68 99% 29.92 0.0
31 23:55 Calm 7.00 Fair CLR 67.8 67.6 99% 29.92 0.0
31 23:35 Calm 7.00 Fair CLR 67.5 67.3 99% 29.92 0.0
31 23:15 S 3 10.00 Fair CLR 68.4 68 99% 29.92 0.0
31 22:55 Calm 10.00 Fair CLR 68.2 67.8 99% 29.92 0.0
31 22:35 Calm 10.00 Fair CLR 68.9 68.2 98% 29.93 0.0
31 22:15 Calm 10.00 Fair CLR 68.4 67.8 98% 29.93 0.0
31 21:55 Calm 10.00 Fair CLR 69.6 68 95% 29.93 0.0
31 21:35 Calm 10.00 Fair CLR 70.5 68.9 95% 29.93 0.0
31 21:15 Calm 10.00 Fair CLR 71.2 69.4 94% 29.93 0.0
31 20:55 Calm 10.00 Fair CLR 72.5 69.4 90% 29.93 0.0
31 20:35 Calm 10.00 Fair CLR 73.2 69.6 89% 29.92 0.0
31 20:15 Calm 10.00 Fair CLR 74.1 69.8 86% 29.92 0.0
31 19:55 SW 5 10.00 Fair CLR 74.3 69.8 86% 29.92 0.0
31 19:35 W 6 10.00 Fair CLR 75.4 70.2 84% 76 29.91 0.0
31 19:15 SW 6 10.00 Fair CLR 77.2 70.3 80% 79 29.9 0.0
31 18:35 SW 3 10.00 Fair CLR 78.3 71.1 79% 81 29.89 0.0
31 18:15 SW 6 10.00 Fair CLR 78.8 70.9 77% 82 29.89 0.0
31 17:55 S 9 10.00 Fair CLR 81 71.1 72% 85 29.89 0.0
31 17:35 S 6 10.00 Fair CLR 81.5 71.2 71% 86 29.88 0.0
31 17:15 SW 10 10.00 Fair CLR 82 71.6 71% 87 29.87 0.0
31 16:55 S 9 10.00 Partly Cloudy SCT110 81 71.6 73% 85 29.87 0.0
31 16:35 S 8 10.00 Partly Cloudy SCT110 79.7 71.6 76% 83 29.86 0.0
31 16:15 S 6 10.00 Fair CLR 80.6 71.1 73% 84 29.87 0.0
31 15:55 S 7 10.00 Fair CLR 81.3 71.1 71% 85 29.86 0.0
31 15:35 S 7 10.00 Fair CLR 83.1 71.4 68% 88 29.88 0.0
31 15:15 SW 7 10.00 Fair CLR 84.2 72.5 68% 90 29.88 0.0
31 14:55 SW 6 10.00 Fair CLR 82.9 71.1 67% 88 29.88 0.0
31 14:35 SW 7 10.00 Fair CLR 82.9 71.2 68% 88 29.87 0.0
31 14:15 SW 5 10.00 Fair CLR 84 71.8 67% 89 29.87 0.0
31 13:55 S 5 10.00 Fair CLR 83.8 72 68% 89 29.88 0.0
31 13:35 W 6 10.00 Fair CLR 83.1 71.4 68% 88 29.88 0.0
31 13:15 W 7 10.00 Fair CLR 82.8 70.2 66% 87 29.89 0.0
31 12:55 W 8 10.00 Fair CLR 82.4 70.7 82.6 69.1 68% 87 29.89 0.0
31 12:35 SW 6 10.00 Fair CLR 81.7 70 68% 85 29.89 0.0
31 12:15 SW 9 10.00 Fair CLR 80.2 69.3 69% 83 29.89 0.0
31 11:50 SW 7 10.00 Fair CLR 80.1 69.4 70% 83 29.9 0.0
31 11:35 SW 8 10.00 Fair CLR 79.3 68.7 70% 82 29.89 0.0
31 11:15 SW 9 10.00 Fair CLR 79.5 68.5 69% 82 29.89 0.0
31 10:55 SW 7 10.00 Fair CLR 78.6 68 70% 81 29.88 0.0
31 10:35 SW 9 10.00 Fair CLR 77.7 67.3 70% 80 29.89 0.0
31 10:15 SW 9 10.00 Fair CLR 76.5 66.9 72% 78 29.88 0.0
31 09:55 SW 8 10.00 Fair CLR 75.7 66.2 72% 77 29.87 0.0
Date Time (cdt) Wind (mph) Vis. (mi.) Weather Sky Cond. Air Dwpt Max. Min. Relative Humidity Wind Chill (°F) Heat Index (°F) altimeter (in) sea level (mb) 1 hr 3 hr 6 hr
6 hour
Temperature (ºF) Pressure Precipitation (in)